This is the latest recevied weather packets stored in our database for station/object SP4IM-13. If no packets are shown the sender has not sent any weather packets the latest 10 day(s).
| Time | Temp. | Humidity | Pressure | Rain* | Wind** | Luminosity | Snow |
|---|---|---|---|---|---|---|---|
| 1777712402 | 21.67° C | 43% | 1020 hPa | - | - | - | - |
| 1777711802 | 22.22° C | 43% | 1020 hPa | - | - | - | - |
| 1777711205 | 22.22° C | 43% | 1021 hPa | - | - | - | - |
| 1777710602 | 20.56° C | 42% | 1021 hPa | - | - | - | - |
| 1777710002 | 19.44° C | 42% | 1021 hPa | - | - | - | - |
| 1777709402 | 17.78° C | 40% | 1021 hPa | - | - | - | - |
| 1777708802 | 16.11° C | 39% | 1021 hPa | - | - | - | - |
| 1777707604 | 14.44° C | 37% | 1021 hPa | - | - | - | - |
| 1777706403 | 13.33° C | 36% | 1021 hPa | - | - | - | - |
| 1777705803 | 13.89° C | 36% | 1021 hPa | - | - | - | - |
| 1777705204 | 13.89° C | 36% | 1021 hPa | - | - | - | - |
| 1777704607 | 13.33° C | 36% | 1021 hPa | - | - | - | - |
| 1777704005 | 12.78° C | 37% | 1021 hPa | - | - | - | - |
| 1777703410 | 12.22° C | 37% | 1021 hPa | - | - | - | - |
| 1777702804 | 11.67° C | 38% | 1021 hPa | - | - | - | - |
| 1777702207 | 11.67° C | 39% | 1022 hPa | - | - | - | - |
| 1777701607 | 11.11° C | 40% | 1022 hPa | - | - | - | - |
| 1777701003 | 11.11° C | 41% | 1022 hPa | - | - | - | - |
| 1777700405 | 10.56° C | 43% | 1021 hPa | - | - | - | - |
| 1777699804 | 10.56° C | 45% | 1022 hPa | - | - | - | - |
| 1777699205 | 10° C | 47% | 1022 hPa | - | - | - | - |
| 1777698605 | 9.44° C | 49% | 1022 hPa | - | - | - | - |
| 1777698007 | 8.89° C | 52% | 1022 hPa | - | - | - | - |
| 1777697406 | 8.33° C | 55% | 1022 hPa | - | - | - | - |
| 1777696806 | 7.78° C | 60% | 1022 hPa | - | - | - | - |
* Rain since midnight (hover to see other rain measurements)
** Current wind speed in m/s (hover to see current wind gust speed)